• In Hungary
  • List of Countries
  • For 7 days
  • Water Temperature
  • Satellite Maps
  • Weather Map
  • News
  • Weather Widgets
  • user-avatar
    Login

    Hourly Weather Kyurek

    Today, 25 September, Tuesday

    Time Temperature Precipitation Wind Pressure Humidity
    00:00 +15°C° 0 mm 2 mps 674 mmHg 75%
    01:00 +15°C° 0 mm 2 mps 674 mmHg 73%
    02:00 +15°C° 0 mm 2 mps 673 mmHg 72%
    03:00 +14°C° 0 mm 3 mps 673 mmHg 70%
    04:00 +14°C° 0 mm 3 mps 673 mmHg 70%
    05:00 +14°C° 0 mm 3 mps 673 mmHg 69%
    06:00 +14°C° 0 mm 3 mps 673 mmHg 69%
    07:00 +18°C° 0 mm 3 mps 673 mmHg 62%
    08:00 +20°C° 0 mm 3 mps 673 mmHg 55%
    09:00 +24°C° 0 mm 2 mps 673 mmHg 47%
    10:00 +25°C° 0 mm 3 mps 673 mmHg 46%
    11:00 +26°C° 0 mm 3 mps 673 mmHg 45%
    12:00 +27°C° 0 mm 3 mps 673 mmHg 43%
    13:00 +27°C° 0 mm 3 mps 672 mmHg 45%
    14:00 +26°C° 0 mm 3 mps 672 mmHg 46%
    15:00 +25°C° 0 mm 3 mps 672 mmHg 51%
    16:00 +23°C° 0 mm 2 mps 671 mmHg 60%
    17:00 +20°C° 0 mm 2 mps 671 mmHg 68%
    18:00 +19°C° 0 mm 1 mps 671 mmHg 77%
    19:00 +19°C° 0.1 mm 1 mps 671 mmHg 76%
    20:00 +19°C° 0.1 mm 1 mps 671 mmHg 75%
    21:00 +19°C° 0.1 mm 1 mps 671 mmHg 74%
    22:00 +19°C° 0 mm 1 mps 671 mmHg 74%
    23:00 +18°C° 0 mm 2 mps 672 mmHg 73%

    Tomorrow, 26 September, Wednesday

    Time Temperature Precipitation Wind Pressure Humidity
    00:00 +17°C° 0 mm 2 mps 672 mmHg 73%
    01:00 +17°C° 0 mm 2 mps 672 mmHg 75%
    02:00 +17°C° 0 mm 2 mps 672 mmHg 77%
    03:00 +16°C° 0 mm 2 mps 672 mmHg 79%
    04:00 +16°C° 0 mm 2 mps 672 mmHg 82%
    05:00 +16°C° 0 mm 2 mps 672 mmHg 84%
    06:00 +15°C° 0 mm 2 mps 673 mmHg 87%
    07:00 +17°C° 0.1 mm 3 mps 673 mmHg 82%
    08:00 +18°C° 0.1 mm 3 mps 674 mmHg 77%
    09:00 +20°C° 0.1 mm 4 mps 674 mmHg 72%
    10:00 +20°C° 0.1 mm 4 mps 674 mmHg 72%
    11:00 +19°C° 0.1 mm 5 mps 675 mmHg 72%
    12:00 +19°C° 0.1 mm 5 mps 675 mmHg 72%
    13:00 +19°C° 0.2 mm 5 mps 675 mmHg 74%
    14:00 +17°C° 0.2 mm 5 mps 675 mmHg 76%
    15:00 +16°C° 0.2 mm 6 mps 675 mmHg 78%
    16:00 +15°C° 0.1 mm 5 mps 675 mmHg 82%
    17:00 +14°C° 0.1 mm 5 mps 675 mmHg 86%
    18:00 +13°C° 0.1 mm 5 mps 676 mmHg 89%
    19:00 +12°C° 0.1 mm 4 mps 676 mmHg 89%
    20:00 +12°C° 0.1 mm 4 mps 676 mmHg 90%
    21:00 +12°C° 0.1 mm 3 mps 677 mmHg 90%
    22:00 +11°C° 0 mm 3 mps 677 mmHg 90%
    23:00 +11°C° 0 mm 3 mps 677 mmHg 90%

    Day after tomorrow, 27 September, Thursday

    Time Temperature Precipitation Wind Pressure Humidity
    00:00 +11°C° 0 mm 3 mps 677 mmHg 90%
    01:00 +11°C° 0 mm 3 mps 677 mmHg 90%
    02:00 +10°C° 0 mm 3 mps 677 mmHg 90%
    03:00 +10°C° 0 mm 2 mps 677 mmHg 90%
    04:00 +10°C° 0 mm 2 mps 677 mmHg 90%
    05:00 +10°C° 0 mm 2 mps 677 mmHg 90%
    06:00 +10°C° 0 mm 2 mps 677 mmHg 90%
    07:00 +11°C° 0 mm 3 mps 678 mmHg 84%
    08:00 +12°C° 0 mm 3 mps 678 mmHg 79%
    09:00 +13°C° 0 mm 3 mps 679 mmHg 73%
    10:00 +14°C° 0 mm 3 mps 679 mmHg 71%
    11:00 +14°C° 0 mm 4 mps 679 mmHg 70%
    12:00 +15°C° 0 mm 4 mps 679 mmHg 68%
    13:00 +14°C° 0 mm 3 mps 678 mmHg 69%
    14:00 +14°C° 0 mm 3 mps 678 mmHg 70%
    15:00 +14°C° 0 mm 3 mps 678 mmHg 71%
    16:00 +14°C° 0 mm 2 mps 678 mmHg 76%
    17:00 +13°C° 0 mm 2 mps 677 mmHg 82%
    18:00 +12°C° 0 mm 1 mps 677 mmHg 87%
    19:00 +12°C° 0 mm 1 mps 677 mmHg 87%
    20:00 +12°C° 0 mm 1 mps 678 mmHg 87%
    21:00 +12°C° 0 mm 1 mps 678 mmHg 88%
    22:00 +11°C° 0 mm 1 mps 678 mmHg 86%
    23:00 +11°C° 0 mm 1 mps 678 mmHg 85%

    28 September, Friday

    Time Temperature Precipitation Wind Pressure Humidity
    00:00 +11°C° 0 mm 1 mps 677 mmHg 83%
    01:00 +11°C° 0 mm 1 mps 677 mmHg 82%
    02:00 +11°C° 0 mm 1 mps 677 mmHg 82%
    03:00 +11°C° 0 mm 1 mps 677 mmHg 81%
    04:00 +11°C° 0 mm 1 mps 677 mmHg 80%
    05:00 +11°C° 0 mm 1 mps 677 mmHg 79%
    06:00 +11°C° 0 mm 1 mps 677 mmHg 78%
    07:00 +13°C° 0 mm 1 mps 678 mmHg 72%
    08:00 +15°C° 0 mm 2 mps 678 mmHg 66%
    09:00 +17°C° 0 mm 2 mps 679 mmHg 61%
    10:00 +18°C° 0 mm 2 mps 679 mmHg 60%
    11:00 +19°C° 0 mm 3 mps 679 mmHg 59%
    12:00 +19°C° 0 mm 3 mps 679 mmHg 58%
    13:00 +19°C° 0 mm 3 mps 678 mmHg 61%
    14:00 +19°C° 0 mm 4 mps 678 mmHg 63%
    15:00 +18°C° 0 mm 4 mps 678 mmHg 66%
    16:00 +17°C° 0 mm 3 mps 677 mmHg 72%
    17:00 +16°C° 0 mm 3 mps 677 mmHg 79%
    18:00 +14°C° 0 mm 3 mps 677 mmHg 85%
    19:00 +13°C° 0 mm 3 mps 676 mmHg 83%
    20:00 +13°C° 0 mm 3 mps 676 mmHg 81%
    21:00 +13°C° 0 mm 3 mps 676 mmHg 80%
    22:00 +13°C° 0 mm 3 mps 676 mmHg 77%
    23:00 +13°C° 0 mm 3 mps 675 mmHg 74%

    29 September, Saturday

    Time Temperature Precipitation Wind Pressure Humidity
    00:00 +13°C° 0 mm 3 mps 675 mmHg 71%
    01:00 +14°C° 0 mm 2 mps 675 mmHg 69%
    02:00 +14°C° 0 mm 2 mps 675 mmHg 67%
    03:00 +14°C° 0 mm 2 mps 674 mmHg 65%
    04:00 +14°C° 0 mm 2 mps 674 mmHg 64%
    05:00 +14°C° 0 mm 2 mps 674 mmHg 63%
    06:00 +14°C° 0 mm 2 mps 674 mmHg 61%
    07:00 +16°C° 0 mm 2 mps 674 mmHg 57%
    08:00 +19°C° 0 mm 1 mps 674 mmHg 52%
    09:00 +21°C° 0 mm 1 mps 675 mmHg 47%
    10:00 +21°C° 0 mm 2 mps 675 mmHg 47%
    11:00 +23°C° 0 mm 2 mps 675 mmHg 46%
    12:00 +24°C° 0 mm 3 mps 674 mmHg 46%
    13:00 +23°C° 0 mm 2 mps 674 mmHg 49%
    14:00 +23°C° 0 mm 2 mps 674 mmHg 51%
    15:00 +23°C° 0 mm 2 mps 674 mmHg 54%
    16:00 +20°C° 0 mm 2 mps 673 mmHg 63%
    17:00 +19°C° 0 mm 1 mps 673 mmHg 71%
    18:00 +16°C° 0 mm 1 mps 673 mmHg 80%
    19:00 +16°C° 0 mm 1 mps 673 mmHg 78%
    20:00 +16°C° 0 mm 1 mps 673 mmHg 75%
    21:00 +16°C° 0 mm 1 mps 673 mmHg 72%
    22:00 +16°C° 0 mm 1 mps 673 mmHg 70%
    23:00 +16°C° 0 mm 1 mps 673 mmHg 67%

    30 September, Sunday

    Time Temperature Precipitation Wind Pressure Humidity
    00:00 +16°C° 0 mm 1 mps 673 mmHg 65%
    01:00 +16°C° 0 mm 1 mps 673 mmHg 63%
    02:00 +16°C° 0 mm 1 mps 673 mmHg 61%
    03:00 +16°C° 0 mm 1 mps 673 mmHg 59%
    04:00 +16°C° 0 mm 1 mps 673 mmHg 57%
    05:00 +15°C° 0 mm 1 mps 673 mmHg 55%
    06:00 +15°C° 0 mm 1 mps 673 mmHg 53%
    07:00 +19°C° 0 mm 1 mps 674 mmHg 50%
    08:00 +21°C° 0 mm 1 mps 674 mmHg 46%
    09:00 +23°C° 0 mm 1 mps 675 mmHg 42%
    10:00 +24°C° 0 mm 2 mps 675 mmHg 43%
    11:00 +24°C° 0 mm 2 mps 675 mmHg 44%
    12:00 +25°C° 0 mm 3 mps 675 mmHg 45%
    13:00 +24°C° 0.1 mm 3 mps 674 mmHg 49%
    14:00 +24°C° 0.1 mm 2 mps 674 mmHg 53%
    15:00 +23°C° 0.1 mm 2 mps 674 mmHg 56%
    16:00 +21°C° 0.2 mm 2 mps 674 mmHg 66%
    17:00 +20°C° 0.2 mm 1 mps 674 mmHg 75%
    18:00 +16°C° 0.2 mm 0 mps 674 mmHg 85%
    19:00 +16°C° 0.1 mm 0 mps 674 mmHg 83%
    20:00 +16°C° 0.1 mm 1 mps 674 mmHg 81%
    21:00 +16°C° 0.1 mm 1 mps 674 mmHg 80%
    22:00 +16°C° 0 mm 1 mps 674 mmHg 78%
    23:00 +16°C° 0 mm 1 mps 674 mmHg 75%
    Show more